This is the latest recevied weather packets stored in our database for station/object KE5WTH-14. If no packets are shown the sender has not sent any weather packets the latest 10 day(s).
| Time | Temp. | Humidity | Pressure | Rain* | Wind** | Luminosity | Snow |
|---|---|---|---|---|---|---|---|
| 1778354951 | 30° C | 55% | 1009.8 hPa | 0 mm | - | 969 W/m² | - |
| 1778354890 | 30° C | 55% | 1009.8 hPa | 0 mm | - | 969 W/m² | - |
| 1778354831 | 30° C | 56% | 1009.8 hPa | 0 mm | - | 964 W/m² | - |
| 1778354769 | 30° C | 56% | 1009.7 hPa | 0 mm | - | 965 W/m² | - |
| 1778354712 | 30° C | 60% | 1009.8 hPa | 0 mm | - | 967 W/m² | - |
| 1778354649 | 30° C | 58% | 1009.6 hPa | 0 mm | - | 969 W/m² | - |
| 1778354588 | 30° C | 58% | 1009.7 hPa | 0 mm | - | 967 W/m² | - |
| 1778354525 | 30° C | 59% | 1009.8 hPa | 0 mm | - | 974 W/m² | - |
| 1778354464 | 30° C | 58% | 1009.8 hPa | 0 mm | - | 978 W/m² | - |
| 1778354404 | 30° C | 57% | 1009.7 hPa | 0 mm | - | 964 W/m² | - |
| 1778354342 | 30° C | 57% | 1009.8 hPa | 0 mm | - | 967 W/m² | - |
| 1778354282 | 30° C | 61% | 1009.8 hPa | 0 mm | - | 976 W/m² | - |
| 1778354224 | 30° C | 58% | 1009.8 hPa | 0 mm | - | 986 W/m² | - |
| 1778354168 | 30° C | 57% | 1009.8 hPa | 0 mm | - | 967 W/m² | - |
| 1778354141 | 30° C | 59% | 1009.8 hPa | 0 mm | - | 960 W/m² | - |
| 1778354113 | 30° C | 57% | 1009.8 hPa | 0 mm | - | 960 W/m² | - |
| 1778354084 | 30° C | 57% | 1009.9 hPa | 0 mm | - | 960 W/m² | - |
| 1778353922 | 30° C | 59% | 1009.8 hPa | 0 mm | - | 958 W/m² | - |
| 1778353863 | 30° C | 59% | 1009.9 hPa | 0 mm | - | 955 W/m² | - |
| 1778353805 | 30° C | 60% | 1009.8 hPa | 0 mm | - | 983 W/m² | - |
| 1778353744 | 30° C | 60% | 1009.8 hPa | 0 mm | - | 974 W/m² | - |
| 1778353675 | 29.44° C | 58% | 1009.8 hPa | 0 mm | - | 988 W/m² | - |
| 1778353594 | 29.44° C | 57% | 1009.9 hPa | 0 mm | - | 990 W/m² | - |
| 1778353533 | 29.44° C | 58% | 1009.9 hPa | 0 mm | - | 1002 W/m² | - |
| 1778353472 | 29.44° C | 59% | 1009.9 hPa | 0 mm | - | 992 W/m² | - |
* Rain latest hour (hover to see other rain measurements)
** Current wind speed in m/s (hover to see current wind gust speed)